| time (UTC) | temp F | wind direction | speed MPH | gust MPH | rain 1hr in | rain 24hr in | rain mn in | humidity % | barometer mb |
| 20260509055542 | 46 | 308 | 1.0 | 2.0 | 0.00 | 0.00 | 0.00 | 70 | |
| 20260509055038 | 46 | 320 | 1.0 | 3.0 | 0.00 | 0.00 | 0.00 | 70 | |
| 20260509054535 | 46 | 329 | 1.0 | 2.0 | 0.00 | 0.00 | 0.00 | 71 | |
| 20260509054033 | 46 | 191 | 1.0 | 2.0 | 0.00 | 0.00 | 0.00 | 71 | |
| 20260509053532 | 46 | 315 | 1.0 | 2.0 | 0.00 | 0.00 | 0.00 | 71 | |
| 20260509053028 | 46 | 309 | 1.0 | 2.0 | 0.00 | 0.00 | 0.00 | 70 | |
| 20260509052526 | 46 | 302 | 1.0 | 2.0 | 0.00 | 0.00 | 0.00 | 70 | |
| 20260509052023 | 46 | 311 | 1.0 | 2.0 | 0.00 | 0.00 | 0.00 | 70 | |
| 20260509051521 | 47 | 332 | 1.0 | 1.0 | 0.00 | 0.00 | 0.00 | 69 | |
| 20260509051018 | 47 | 316 | 2.0 | 3.0 | 0.00 | 0.00 | 0.00 | 69 | |
| 20260509050515 | 47 | 334 | 1.0 | 3.0 | 0.00 | 0.00 | 0.00 | 67 | |
| 20260509050011 | 47 | 188 | 2.0 | 5.0 | 0.00 | 0.00 | 0.00 | 67 | |
| 20260509045509 | 47 | 275 | 1.0 | 2.0 | 0.00 | 0.00 | 0.00 | 66 | |
| 20260509045006 | 47 | 270 | 3.0 | 3.0 | 0.00 | 0.00 | 0.00 | 65 | |
| 20260509044504 | 48 | 278 | 0.0 | 1.0 | 0.00 | 0.00 | 0.00 | 65 | |
| 20260509044001 | 48 | 336 | 0.0 | 0.0 | 0.00 | 0.00 | 0.00 | 64 | |
| 20260509043456 | 48 | 335 | 0.0 | 1.0 | 0.00 | 0.00 | 0.00 | 64 | |
| 20260509042951 | 48 | 301 | 0.0 | 1.0 | 0.00 | 0.00 | 0.00 | 64 | |
| 20260509042449 | 48 | 345 | 0.0 | 0.0 | 0.00 | 0.00 | 0.00 | 63 | |
| 20260509041945 | 48 | 332 | 0.0 | 1.0 | 0.00 | 0.00 | 0.00 | 63 | |
| 20260509041442 | 48 | 345 | 0.0 | 2.0 | 0.00 | 0.00 | 0.00 | 63 | |
| 20260509040940 | 48 | 338 | 0.0 | 2.0 | 0.00 | 0.00 | 0.00 | 62 | |
| 20260509040438 | 48 | 301 | 0.0 | 2.0 | 0.00 | 0.00 | 0.00 | 62 | |
| 20260509035934 | 48 | 329 | 0.0 | 1.0 | 0.00 | 0.09 | 0.09 | 62 | |
| 20260509035431 | 49 | 328 | 0.0 | 2.0 | 0.00 | 0.09 | 0.09 | 61 | |
| 20260509034927 | 49 | 282 | 1.0 | 2.0 | 0.00 | 0.09 | 0.09 | 61 | |
| 20260509034425 | 49 | 334 | 0.0 | 2.0 | 0.00 | 0.09 | 0.09 | 61 | |
| 20260509033922 | 49 | 316 | 0.0 | 2.0 | 0.00 | 0.09 | 0.09 | 60 | |
| 20260509033419 | 49 | 323 | 1.0 | 2.0 | 0.00 | 0.09 | 0.09 | 60 | |
| 20260509032915 | 49 | 349 | 0.0 | 1.0 | 0.00 | 0.09 | 0.09 | 59 | |
| 20260509032413 | 50 | 342 | 0.0 | 0.0 | 0.00 | 0.09 | 0.09 | 58 | |
| 20260509031911 | 50 | 343 | 0.0 | 2.0 | 0.00 | 0.09 | 0.09 | 57 | |
| 20260509031408 | 50 | 330 | 1.0 | 2.0 | 0.00 | 0.09 | 0.09 | 56 | |
| 20260509030905 | 50 | 103 | 1.0 | 3.0 | 0.00 | 0.09 | 0.09 | 56 | |
| 20260509030404 | 51 | 29 | 0.0 | 1.0 | 0.00 | 0.09 | 0.09 | 56 | |
| 20260509025901 | 51 | 319 | 0.0 | 2.0 | 0.00 | 0.09 | 0.09 | 56 | |
| 20260509025355 | 51 | 267 | 0.0 | 1.0 | 0.00 | 0.09 | 0.09 | 56 | |
| 20260509024851 | 51 | 312 | 2.0 | 3.0 | 0.00 | 0.09 | 0.09 | 56 | |
| 20260509024347 | 51 | 336 | 1.0 | 1.0 | 0.00 | 0.09 | 0.09 | 56 | |
| 20260509023844 | 51 | 333 | 2.0 | 2.0 | 0.00 | 0.09 | 0.09 | 56 | |
| 20260509023341 | 51 | 298 | 2.0 | 2.0 | 0.00 | 0.09 | 0.09 | 57 | |
| 20260509022833 | 51 | 226 | 0.0 | 2.0 | 0.00 | 0.09 | 0.09 | 58 | |
| 20260509022330 | 51 | 322 | 0.0 | 2.0 | 0.00 | 0.09 | 0.09 | 58 | |
| 20260509021827 | 51 | 337 | 0.0 | 2.0 | 0.00 | 0.09 | 0.09 | 57 | |
| 20260509021324 | 51 | 336 | 0.0 | 2.0 | 0.00 | 0.09 | 0.09 | 57 | |
| 20260509020822 | 51 | 333 | 1.0 | 3.0 | 0.00 | 0.09 | 0.09 | 57 | |
| 20260509020320 | 50 | 1 | 1.0 | 2.0 | 0.00 | 0.09 | 0.09 | 59 | |
| 20260509015817 | 50 | 270 | 1.0 | 5.0 | 0.00 | 0.09 | 0.09 | 59 | |
| 20260509015315 | 51 | 355 | 1.0 | 3.0 | 0.00 | 0.09 | 0.09 | 59 | |
| 20260509014811 | 51 | 229 | 1.0 | 3.0 | 0.00 | 0.09 | 0.09 | 58 | |
| 20260509014308 | 51 | 289 | 1.0 | 3.0 | 0.00 | 0.09 | 0.09 | 59 | |
| 20260509013805 | 51 | 286 | 1.0 | 1.0 | 0.00 | 0.09 | 0.09 | 59 | |
| 20260509013301 | 51 | 327 | 0.0 | 2.0 | 0.00 | 0.09 | 0.09 | 59 | |
| 20260509012757 | 51 | 326 | 0.0 | 3.0 | 0.00 | 0.09 | 0.09 | 59 | |
| 20260509012254 | 51 | 318 | 2.0 | 2.0 | 0.00 | 0.09 | 0.09 | 58 | |
| 20260509011751 | 51 | 316 | 0.0 | 2.0 | 0.00 | 0.09 | 0.09 | 58 | |
| 20260509011248 | 51 | 92 | 1.0 | 1.0 | 0.00 | 0.09 | 0.09 | 58 | |
| 20260509010746 | 52 | 237 | 2.0 | 2.0 | 0.00 | 0.09 | 0.09 | 57 | |
| 20260509010243 | 52 | 257 | 0.0 | 1.0 | 0.00 | 0.09 | 0.09 | 57 | |
| 20260509005741 | 52 | 301 | 0.0 | 2.0 | 0.00 | 0.09 | 0.09 | 56 | |
| 20260509005238 | 52 | 272 | 0.0 | 1.0 | 0.00 | 0.09 | 0.09 | 56 | |
| 20260509004737 | 53 | 234 | 1.0 | 3.0 | 0.00 | 0.09 | 0.09 | 55 | |
| 20260509004235 | 53 | 334 | 0.0 | 5.0 | 0.00 | 0.09 | 0.09 | 55 | |
| 20260509003733 | 53 | 133 | 1.0 | 3.0 | 0.00 | 0.09 | 0.09 | 54 | |
| 20260509003230 | 53 | 349 | 1.0 | 3.0 | 0.00 | 0.09 | 0.09 | 54 | |
| 20260509002727 | 53 | 132 | 1.0 | 6.0 | 0.00 | 0.09 | 0.09 | 54 | |
| 20260509002225 | 54 | 310 | 0.0 | 3.0 | 0.00 | 0.09 | 0.09 | 53 | |
| 20260509001723 | 54 | 171 | 3.0 | 5.0 | 0.00 | 0.09 | 0.09 | 53 | |
| 20260509001218 | 55 | 315 | 4.0 | 6.0 | 0.00 | 0.09 | 0.09 | 51 | |
| 20260509000716 | 56 | 67 | 0.0 | 2.0 | 0.00 | 0.09 | 0.09 | 42 | |
| 20260509000213 | 56 | 20 | 1.0 | 2.0 | 0.00 | 0.09 | 0.09 | 32 | |
| 20260508235710 | 57 | 43 | 0.0 | 3.0 | 0.00 | 0.09 | 0.09 | 32 | |
| 20260508235206 | 57 | 40 | 1.0 | 2.0 | 0.00 | 0.09 | 0.09 | 32 | |
| 20260508234704 | 57 | 352 | 1.0 | 2.0 | 0.00 | 0.09 | 0.09 | 31 | |
| 20260508234200 | 58 | 57 | 0.0 | 3.0 | 0.00 | 0.09 | 0.09 | 32 | |
| 20260508233654 | 58 | 72 | 2.0 | 5.0 | 0.00 | 0.09 | 0.09 | 32 | |
| 20260508233152 | 59 | 48 | 2.0 | 9.0 | 0.00 | 0.09 | 0.09 | 31 | |
| 20260508232649 | 59 | 16 | 3.0 | 5.0 | 0.00 | 0.09 | 0.09 | 30 | |
| 20260508232145 | 59 | 7 | 1.0 | 5.0 | 0.00 | 0.09 | 0.09 | 31 | |
| 20260508231643 | 59 | 25 | 3.0 | 6.0 | 0.00 | 0.09 | 0.09 | 30 | |
| 20260508231140 | 59 | 11 | 2.0 | 3.0 | 0.00 | 0.09 | 0.09 | 30 | |
| 20260508230636 | 60 | 331 | 4.0 | 6.0 | 0.00 | 0.09 | 0.09 | 29 | |
| 20260508230133 | 59 | 45 | 0.0 | 3.0 | 0.00 | 0.09 | 0.09 | 30 | |
| 20260508225631 | 60 | 23 | 2.0 | 6.0 | 0.00 | 0.09 | 0.09 | 29 | |
| 20260508225126 | 60 | 38 | 2.0 | 3.0 | 0.00 | 0.09 | 0.09 | 29 | |
| 20260508224625 | 60 | 65 | 2.0 | 7.0 | 0.00 | 0.09 | 0.09 | 30 | |
| 20260508224122 | 60 | 9 | 1.0 | 5.0 | 0.00 | 0.09 | 0.09 | 29 | |
| 20260508223620 | 61 | 358 | 0.0 | 2.0 | 0.00 | 0.09 | 0.09 | 30 | |
| 20260508223116 | 61 | 24 | 0.0 | 5.0 | 0.00 | 0.09 | 0.09 | 30 | |
| 20260508222614 | 61 | 43 | 2.0 | 5.0 | 0.00 | 0.09 | 0.09 | 30 | |
| 20260508222111 | 60 | 42 | 4.0 | 6.0 | 0.00 | 0.09 | 0.09 | 29 | |
| 20260508221607 | 62 | 57 | 6.0 | 8.0 | 0.00 | 0.09 | 0.09 | 29 | |
| 20260508221103 | 62 | 358 | 0.0 | 3.0 | 0.00 | 0.09 | 0.09 | 29 | |
| 20260508220559 | 61 | 31 | 0.0 | 6.0 | 0.00 | 0.09 | 0.09 | 30 | |
| 20260508220056 | 61 | 96 | 1.0 | 3.0 | 0.00 | 0.09 | 0.09 | 29 | |
| 20260508215553 | 61 | 275 | 1.0 | 1.0 | 0.00 | 0.09 | 0.09 | 29 | |
| 20260508215050 | 62 | 11 | 3.0 | 3.0 | 0.00 | 0.09 | 0.09 | 30 | |
| 20260508214547 | 62 | 1 | 3.0 | 6.0 | 0.00 | 0.09 | 0.09 | 30 | |
| 20260508214043 | 62 | 352 | 0.0 | 1.0 | 0.00 | 0.09 | 0.09 | 30 | |
| 20260508213541 | 62 | 56 | 2.0 | 2.0 | 0.00 | 0.09 | 0.09 | 30 | |
| 20260508213036 | 62 | 31 | 1.0 | 2.0 | 0.00 | 0.09 | 0.09 | 29 | |
| 20260508212533 | 61 | 293 | 1.0 | 3.0 | 0.00 | 0.09 | 0.09 | 29 | |
| 20260508212030 | 60 | 227 | 1.0 | 3.0 | 0.00 | 0.09 | 0.09 | 31 | |
| 20260508211525 | 61 | 36 | 1.0 | 7.0 | 0.00 | 0.09 | 0.09 | 31 | |
| 20260508211022 | 60 | 77 | 3.0 | 5.0 | 0.00 | 0.09 | 0.09 | 34 | |
| 20260508210518 | 60 | 103 | 5.0 | 7.0 | 0.00 | 0.09 | 0.09 | 49 | |
| 20260508210016 | 58 | 196 | 1.0 | 7.0 | 0.00 | 0.09 | 0.09 | 54 | |
| 20260508205513 | 58 | 245 | 1.0 | 5.0 | 0.00 | 0.09 | 0.09 | 58 | |
| 20260508205009 | 58 | 305 | 3.0 | 6.0 | 0.00 | 0.09 | 0.09 | 57 | |
| 20260508204506 | 55 | 68 | 1.0 | 5.0 | 0.00 | 0.09 | 0.09 | 60 | |
| 20260508204002 | 57 | 296 | 2.0 | 3.0 | 0.00 | 0.09 | 0.09 | 58 | |
| 20260508203458 | 57 | 303 | 1.0 | 7.0 | 0.00 | 0.09 | 0.09 | 59 | |
| 20260508202953 | 56 | 0 | 1.0 | 6.0 | 0.00 | 0.09 | 0.09 | 59 | |
| 20260508202451 | 55 | 234 | 3.0 | 9.0 | 0.00 | 0.09 | 0.09 | 60 | |
| 20260508201948 | 55 | 208 | 3.0 | 8.0 | 0.00 | 0.09 | 0.09 | 61 | |
| 20260508201444 | 55 | 324 | 1.0 | 5.0 | 0.00 | 0.09 | 0.09 | 58 | |
| 20260508200941 | 55 | 271 | 3.0 | 7.0 | 0.00 | 0.09 | 0.09 | 60 | |
| 20260508200438 | 55 | 246 | 4.0 | 8.0 | 0.00 | 0.09 | 0.09 | 60 | |
| 20260508195933 | 55 | 293 | 1.0 | 8.0 | 0.00 | 0.09 | 0.09 | 59 | |
| 20260508195431 | 55 | 261 | 6.0 | 10.0 | 0.00 | 0.09 | 0.09 | 57 | |
| 20260508194926 | 56 | 254 | 3.0 | 7.0 | 0.00 | 0.09 | 0.09 | 57 | |
| 20260508194424 | 56 | 322 | 1.0 | 5.0 | 0.00 | 0.09 | 0.09 | 56 | |
| 20260508193921 | 56 | 297 | 4.0 | 5.0 | 0.00 | 0.09 | 0.09 | 54 | |
| 20260508193418 | 56 | 227 | 3.0 | 6.0 | 0.00 | 0.09 | 0.09 | 54 | |
| 20260508192914 | 56 | 334 | 2.0 | 3.0 | 0.00 | 0.09 | 0.09 | 54 | |
| 20260508192411 | 57 | 306 | 2.0 | 6.0 | 0.00 | 0.09 | 0.09 | 51 | |
| 20260508191908 | 56 | 100 | 1.0 | 6.0 | 0.00 | 0.09 | 0.09 | 53 | |
| 20260508191406 | 57 | 258 | 2.0 | 5.0 | 0.00 | 0.09 | 0.09 | 52 | |
| 20260508190902 | 57 | 340 | 3.0 | 6.0 | 0.00 | 0.09 | 0.09 | 51 | |
| 20260508190359 | 56 | 349 | 0.0 | 6.0 | 0.00 | 0.09 | 0.09 | 50 | |
| 20260508185855 | 57 | 357 | 0.0 | 2.0 | 0.00 | 0.09 | 0.09 | 49 | |
| 20260508185353 | 55 | 334 | 0.0 | 6.0 | 0.00 | 0.09 | 0.09 | 51 | |
| 20260508184850 | 56 | 301 | 1.0 | 7.0 | 0.00 | 0.09 | 0.09 | 51 | |
| 20260508184347 | 58 | 296 | 0.0 | 6.0 | 0.00 | 0.09 | 0.09 | 38 | |
| 20260508183844 | 60 | 174 | 1.0 | 5.0 | 0.00 | 0.09 | 0.09 | 37 | |
| 20260508183340 | 61 | 314 | 1.0 | 3.0 | 0.00 | 0.09 | 0.09 | 39 | |
| 20260508182836 | 60 | 298 | 0.0 | 5.0 | 0.00 | 0.09 | 0.09 | 45 | |
| 20260508182333 | 59 | 207 | 4.0 | 7.0 | 0.00 | 0.09 | 0.09 | 39 | |
| 20260508181829 | 60 | 68 | 1.0 | 2.0 | 0.00 | 0.09 | 0.09 | 37 | |
| 20260508181326 | 60 | 307 | 1.0 | 3.0 | 0.00 | 0.09 | 0.09 | 40 | |
| 20260508180823 | 58 | 274 | 2.0 | 3.0 | 0.00 | 0.09 | 0.09 | 39 | |
| 20260508180320 | 59 | 154 | 1.0 | 5.0 | 0.00 | 0.09 | 0.09 | 39 | |
| 20260508175816 | 59 | 59 | 1.0 | 5.0 | 0.00 | 0.09 | 0.09 | 39 | |
| 20260508175312 | 57 | 338 | 1.0 | 1.0 | 0.00 | 0.09 | 0.09 | 38 | |
| 20260508174811 | 57 | 347 | 0.0 | 3.0 | 0.00 | 0.09 | 0.09 | 41 | |
| 20260508174308 | 58 | 183 | 4.0 | 7.0 | 0.00 | 0.09 | 0.09 | 39 | |
| 20260508173804 | 58 | 10 | 1.0 | 3.0 | 0.00 | 0.09 | 0.09 | 39 | |
| 20260508173301 | 57 | 350 | 0.0 | 3.0 | 0.00 | 0.09 | 0.09 | 40 | |
| 20260508172757 | 59 | 335 | 1.0 | 3.0 | 0.00 | 0.09 | 0.09 | 42 | |
| 20260508172254 | 58 | 323 | 0.0 | 3.0 | 0.00 | 0.09 | 0.09 | 44 | |
| 20260508171750 | 58 | 349 | 1.0 | 3.0 | 0.00 | 0.09 | 0.09 | 41 | |
| 20260508171246 | 55 | 298 | 2.0 | 3.0 | 0.00 | 0.09 | 0.09 | 44 | |
| 20260508170743 | 57 | 0 | 0.0 | 6.0 | 0.00 | 0.09 | 0.09 | 43 | |
| 20260508170242 | 55 | 195 | 2.0 | 3.0 | 0.00 | 0.09 | 0.09 | 44 | |
| 20260508165738 | 55 | 52 | 0.0 | 3.0 | 0.00 | 0.09 | 0.09 | 54 | |
| 20260508165235 | 55 | 336 | 2.0 | 5.0 | 0.00 | 0.09 | 0.09 | 53 | |
| 20260508164732 | 56 | 297 | 1.0 | 3.0 | 0.00 | 0.09 | 0.09 | 40 | |
| 20260508164228 | 54 | 329 | 1.0 | 5.0 | 0.00 | 0.09 | 0.09 | 42 | |
| 20260508163726 | 55 | 314 | 1.0 | 3.0 | 0.00 | 0.09 | 0.09 | 52 | |
| 20260508163224 | 55 | 343 | 1.0 | 6.0 | 0.00 | 0.09 | 0.09 | 55 | |
| 20260508162719 | 55 | 275 | 2.0 | 2.0 | 0.00 | 0.09 | 0.09 | 56 | |
| 20260508162217 | 55 | 319 | 2.0 | 2.0 | 0.00 | 0.09 | 0.09 | 57 | |
| 20260508161714 | 53 | 269 | 2.0 | 3.0 | 0.00 | 0.09 | 0.09 | 62 | |
| 20260508161211 | 55 | 178 | 5.0 | 6.0 | 0.00 | 0.09 | 0.09 | 58 | |
| 20260508160709 | 56 | 300 | 5.0 | 7.0 | 0.00 | 0.09 | 0.09 | 56 | |
| 20260508160207 | 54 | 304 | 1.0 | 2.0 | 0.00 | 0.09 | 0.09 | 59 | |
| 20260508155703 | 54 | 226 | 2.0 | 6.0 | 0.00 | 0.09 | 0.09 | 60 | |
| 20260508155200 | 53 | 152 | 3.0 | 5.0 | 0.00 | 0.09 | 0.09 | 59 | |
| 20260508154657 | 53 | 243 | 2.0 | 3.0 | 0.00 | 0.09 | 0.09 | 59 | |
| 20260508154154 | 54 | 289 | 1.0 | 6.0 | 0.00 | 0.09 | 0.09 | 60 | |
| 20260508153650 | 53 | 288 | 1.0 | 2.0 | 0.00 | 0.09 | 0.09 | 59 | |
| 20260508153148 | 52 | 300 | 3.0 | 7.0 | 0.00 | 0.09 | 0.09 | 64 | |
| 20260508152644 | 52 | 227 | 4.0 | 8.0 | 0.00 | 0.09 | 0.09 | 67 | |
| 20260508152140 | 51 | 314 | 1.0 | 6.0 | 0.00 | 0.09 | 0.09 | 66 | |
| 20260508151636 | 52 | 74 | 0.0 | 5.0 | 0.00 | 0.09 | 0.09 | 66 | |
| 20260508151133 | 54 | 341 | 1.0 | 1.0 | 0.00 | 0.09 | 0.09 | 54 | |
| 20260508150630 | 54 | 300 | 0.0 | 2.0 | 0.00 | 0.09 | 0.09 | 52 | |
| 20260508150127 | 53 | 287 | 0.0 | 1.0 | 0.00 | 0.09 | 0.09 | 52 | |
| 20260508145623 | 53 | 324 | 0.0 | 2.0 | 0.00 | 0.09 | 0.09 | 52 | |
| 20260508145119 | 54 | 351 | 3.0 | 5.0 | 0.00 | 0.09 | 0.09 | 51 | |
| 20260508144617 | 52 | 256 | 2.0 | 3.0 | 0.00 | 0.09 | 0.09 | 56 | |
| 20260508144114 | 51 | 75 | 0.0 | 1.0 | 0.00 | 0.09 | 0.09 | 56 | |
| 20260508143612 | 51 | 334 | 1.0 | 2.0 | 0.00 | 0.09 | 0.09 | 58 | |
| 20260508143108 | 52 | 31 | 1.0 | 2.0 | 0.00 | 0.09 | 0.09 | 55 | |
| 20260508142605 | 52 | 6 | 2.0 | 2.0 | 0.00 | 0.09 | 0.09 | 58 | |
| 20260508142102 | 51 | 203 | 0.0 | 3.0 | 0.00 | 0.09 | 0.09 | 60 | |
| 20260508141558 | 50 | 356 | 0.0 | 0.0 | 0.00 | 0.09 | 0.09 | 65 | |
| 20260508141056 | 50 | 44 | 1.0 | 5.0 | 0.00 | 0.09 | 0.09 | 67 | |
| 20260508140553 | 51 | 71 | 1.0 | 5.0 | 0.00 | 0.09 | 0.09 | 63 | |
| 20260508140050 | 50 | 344 | 0.0 | 0.0 | 0.00 | 0.09 | 0.09 | 68 | |
| 20260508135545 | 50 | 26 | 1.0 | 1.0 | 0.00 | 0.09 | 0.09 | 65 | |
| 20260508135042 | 50 | 343 | 0.0 | 1.0 | 0.00 | 0.09 | 0.09 | 68 | |
| 20260508134538 | 50 | 349 | 0.0 | 2.0 | 0.00 | 0.09 | 0.09 | 69 | |
| 20260508134035 | 50 | 265 | 1.0 | 1.0 | 0.00 | 0.09 | 0.09 | 70 | |
| 20260508133532 | 49 | 256 | 1.0 | 2.0 | 0.00 | 0.09 | 0.09 | 70 | |
| 20260508133029 | 49 | 253 | 0.0 | 1.0 | 0.00 | 0.09 | 0.09 | 73 | |
| 20260508132527 | 48 | 285 | 1.0 | 3.0 | 0.00 | 0.09 | 0.09 | 74 | |
| 20260508132024 | 47 | 128 | 0.0 | 0.0 | 0.00 | 0.09 | 0.09 | 76 | |
| 20260508131519 | 47 | 0 | 0.0 | 2.0 | 0.00 | 0.09 | 0.09 | 76 | |
| 20260508131016 | 47 | 315 | 0.0 | 1.0 | 0.00 | 0.09 | 0.09 | 77 | |
| 20260508130513 | 46 | 342 | 0.0 | 1.0 | 0.00 | 0.09 | 0.09 | 78 | |
| 20260508130009 | 45 | 325 | 0.0 | 2.0 | 0.00 | 0.09 | 0.09 | 80 | |
| 20260508125505 | 44 | 284 | 0.0 | 2.0 | 0.00 | 0.09 | 0.09 | 82 | |
| 20260508125003 | 43 | 344 | 0.0 | 2.0 | 0.00 | 0.09 | 0.09 | 84 | |
| 20260508124500 | 43 | 342 | 0.0 | 2.0 | 0.00 | 0.09 | 0.09 | 85 | |
| 20260508123957 | 42 | 338 | 0.0 | 0.0 | 0.00 | 0.09 | 0.09 | 86 | |
| 20260508123456 | 41 | 37 | 0.0 | 2.0 | 0.00 | 0.09 | 0.09 | 87 | |
| 20260508122952 | 41 | 331 | 0.0 | 1.0 | 0.00 | 0.09 | 0.09 | 89 | |
| 20260508122449 | 41 | 333 | 0.0 | 1.0 | 0.00 | 0.09 | 0.09 | 91 | |
| 20260508121946 | 40 | 347 | 0.0 | 0.0 | 0.00 | 0.09 | 0.09 | 92 | |
| 20260508121444 | 39 | 345 | 0.0 | 0.0 | 0.07 | 0.09 | 0.09 | 92 | |
| 20260508120942 | 38 | 350 | 0.0 | 0.0 | 0.07 | 0.09 | 0.09 | 92 | |
| 20260508120439 | 38 | 359 | 0.0 | 0.0 | 0.00 | 0.08 | 0.08 | 92 | |
| 20260508115937 | 38 | 0 | 0.0 | 1.0 | 0.00 | 0.08 | 0.08 | 93 | |
| 20260508115435 | 37 | 282 | 0.0 | 2.0 | 0.00 | 0.08 | 0.08 | 93 | |
| 20260508114931 | 37 | 304 | 0.0 | 1.0 | 0.00 | 0.08 | 0.08 | 93 | |
| 20260508114428 | 37 | 21 | 0.0 | 1.0 | 0.05 | 0.08 | 0.08 | 93 | |
| 20260508113925 | 36 | 332 | 0.0 | 1.0 | 0.00 | 0.07 | 0.07 | 93 | |
| 20260508113423 | 36 | 354 | 1.0 | 5.0 | 0.00 | 0.07 | 0.07 | 92 | |
| 20260508112919 | 36 | 328 | 1.0 | 5.0 | 0.07 | 0.07 | 0.07 | 92 | |
| 20260508112416 | 37 | 7 | 1.0 | 7.0 | 0.19 | 0.07 | 0.07 | 91 | |
| 20260508111913 | 38 | 64 | 1.0 | 7.0 | 0.17 | 0.06 | 0.06 | 90 | |
| 20260508111410 | 38 | 54 | 3.0 | 5.0 | 0.12 | 0.04 | 0.04 | 89 | |
| 20260508110907 | 40 | 138 | 3.0 | 6.0 | 0.05 | 0.02 | 0.02 | 88 | |
| 20260508110405 | 41 | 65 | 1.0 | 2.0 | 0.00 | 0.01 | 0.01 | 89 | |
| 20260508105904 | 41 | 0 | 0.0 | 0.0 | 0.07 | 0.01 | 0.01 | 88 | |
| 20260508105401 | 41 | 21 | 0.0 | 1.0 | 0.07 | 0.01 | 0.01 | 87 | |
| 20260508104858 | 41 | 23 | 0.0 | 1.0 | 0.00 | 0.00 | 0.00 | 87 | |
| 20260508104355 | 41 | 12 | 0.0 | 2.0 | 0.00 | 0.00 | 0.00 | 86 | |
| 20260508103852 | 41 | 26 | 0.0 | 1.0 | 0.00 | 0.00 | 0.00 | 86 | |
| 20260508103349 | 41 | 5 | 0.0 | 1.0 | 0.00 | 0.00 | 0.00 | 86 | |
| 20260508102846 | 41 | 12 | 0.0 | 0.0 | 0.00 | 0.00 | 0.00 | 86 | |
| 20260508102345 | 41 | 31 | 1.0 | 2.0 | 0.00 | 0.00 | 0.00 | 87 | |
| 20260508101842 | 41 | 17 | 0.0 | 1.0 | 0.00 | 0.00 | 0.00 | 86 | |
| 20260508101339 | 41 | 8 | 0.0 | 0.0 | 0.00 | 0.00 | 0.00 | 86 | |
| 20260508100837 | 41 | 354 | 0.0 | 0.0 | 0.00 | 0.00 | 0.00 | 86 | |
| 20260508100335 | 41 | 29 | 1.0 | 3.0 | 0.00 | 0.00 | 0.00 | 86 | |
| 20260508095830 | 41 | 0 | 1.0 | 1.0 | 0.00 | 0.00 | 0.00 | 85 | |
| 20260508095328 | 41 | 64 | 2.0 | 3.0 | 0.00 | 0.00 | 0.00 | 85 | |
| 20260508094825 | 41 | 17 | 0.0 | 1.0 | 0.00 | 0.00 | 0.00 | 85 | |
| 20260508094322 | 41 | 37 | 0.0 | 2.0 | 0.00 | 0.00 | 0.00 | 85 | |
| 20260508093819 | 41 | 36 | 1.0 | 5.0 | 0.00 | 0.00 | 0.00 | 85 | |
| 20260508093316 | 41 | 358 | 0.0 | 1.0 | 0.00 | 0.00 | 0.00 | 85 | |
| 20260508092814 | 41 | 5 | 1.0 | 2.0 | 0.00 | 0.00 | 0.00 | 85 | |
| 20260508092314 | 41 | 27 | 0.0 | 1.0 | 0.00 | 0.00 | 0.00 | 84 | |
| 20260508091810 | 41 | 351 | 0.0 | 1.0 | 0.00 | 0.00 | 0.00 | 84 | |
| 20260508091306 | 41 | 352 | 0.0 | 1.0 | 0.00 | 0.00 | 0.00 | 83 | |
| 20260508090804 | 41 | 25 | 0.0 | 2.0 | 0.00 | 0.00 | 0.00 | 83 | |
| 20260508090302 | 41 | 320 | 1.0 | 2.0 | 0.00 | 0.00 | 0.00 | 82 | |
| 20260508085757 | 41 | 1 | 0.0 | 1.0 | 0.00 | 0.00 | 0.00 | 81 | |
| 20260508085254 | 41 | 359 | 0.0 | 2.0 | 0.00 | 0.00 | 0.00 | 81 | |
| 20260508084750 | 41 | 17 | 0.0 | 0.0 | 0.00 | 0.00 | 0.00 | 81 | |
| 20260508084248 | 41 | 1 | 0.0 | 1.0 | 0.00 | 0.00 | 0.00 | 80 | |
| 20260508083745 | 40 | 16 | 0.0 | 0.0 | 0.00 | 0.00 | 0.00 | 81 | |
| 20260508083242 | 40 | 358 | 0.0 | 0.0 | 0.00 | 0.00 | 0.00 | 82 | |
| 20260508082737 | 40 | 0 | 0.0 | 0.0 | 0.00 | 0.00 | 0.00 | 82 | |
| 20260508082235 | 40 | 6 | 0.0 | 1.0 | 0.00 | 0.00 | 0.00 | 82 | |
| 20260508081732 | 40 | 334 | 0.0 | 0.0 | 0.00 | 0.00 | 0.00 | 82 | |
| 20260508081228 | 40 | 9 | 0.0 | 0.0 | 0.00 | 0.00 | 0.00 | 82 | |
| 20260508080725 | 40 | 349 | 0.0 | 0.0 | 0.00 | 0.00 | 0.00 | 82 | |
| 20260508080224 | 40 | 347 | 0.0 | 0.0 | 0.00 | 0.00 | 0.00 | 81 | |
| 20260508075720 | 40 | 10 | 0.0 | 0.0 | 0.00 | 0.00 | 0.00 | 81 | |
| 20260508075217 | 40 | 9 | 0.0 | 0.0 | 0.00 | 0.00 | 0.00 | 82 | |
| 20260508074715 | 40 | 1 | 0.0 | 0.0 | 0.00 | 0.00 | 0.00 | 83 | |
| 20260508074212 | 40 | 344 | 0.0 | 0.0 | 0.00 | 0.00 | 0.00 | 83 | |
| 20260508073708 | 39 | 4 | 0.0 | 0.0 | 0.00 | 0.00 | 0.00 | 84 | |
| 20260508073207 | 39 | 357 | 0.0 | 0.0 | 0.00 | 0.00 | 0.00 | 84 | |
| 20260508072702 | 39 | 356 | 0.0 | 0.0 | 0.00 | 0.00 | 0.00 | 85 | |
| 20260508072159 | 39 | 4 | 0.0 | 0.0 | 0.00 | 0.00 | 0.00 | 85 | |
| 20260508071657 | 39 | 8 | 0.0 | 0.0 | 0.00 | 0.00 | 0.00 | 86 | |
| 20260508071155 | 39 | 356 | 0.0 | 0.0 | 0.00 | 0.00 | 0.00 | 87 | |
| 20260508070652 | 39 | 6 | 0.0 | 0.0 | 0.00 | 0.00 | 0.00 | 87 | |
| 20260508070151 | 39 | 2 | 0.0 | 0.0 | 0.00 | 0.00 | 0.00 | 87 | |
| 20260508065647 | 39 | 12 | 0.0 | 0.0 | 0.00 | 0.00 | 0.00 | 87 | |
| 20260508065145 | 39 | 23 | 0.0 | 0.0 | 0.00 | 0.00 | 0.00 | 87 | |
| 20260508064643 | 39 | 11 | 0.0 | 0.0 | 0.00 | 0.00 | 0.00 | 87 | |
| 20260508064141 | 39 | 2 | 0.0 | 0.0 | 0.00 | 0.00 | 0.00 | 87 | |
| 20260508063638 | 39 | 5 | 0.0 | 0.0 | 0.00 | 0.00 | 0.00 | 87 | |
| 20260508063136 | 39 | 7 | 0.0 | 0.0 | 0.00 | 0.00 | 0.00 | 87 | |
| 20260508062633 | 39 | 8 | 0.0 | 0.0 | 0.00 | 0.00 | 0.00 | 87 | |
| 20260508062129 | 39 | 3 | 0.0 | 0.0 | 0.00 | 0.00 | 0.00 | 87 | |
| 20260508061627 | 39 | 5 | 0.0 | 0.0 | 0.00 | 0.00 | 0.00 | 87 | |
| 20260508061124 | 39 | 357 | 0.0 | 0.0 | 0.00 | 0.00 | 0.00 | 87 | |
| 20260508060621 | 39 | 0 | 0.0 | 0.0 | 0.00 | 0.00 | 0.00 | 86 | |
| 20260508060118 | 39 | 19 | 0.0 | 0.0 | 0.00 | 0.00 | 0.00 | 86 |